Location: Central Falls
(41.8900°N, 71.3929°W)
Time: 15:35:28
(UTC+00:00)

Vanguard 1 Rocket - Pass Details

Date: 11 December 2023
Orbit: 654 x 4218 km, 34.3° (Epoch: 24 February)

Event Time Altitude Azimuth Distance (km) Brightness Sun altitude
Rises 04:20:00 0° 185° (S) 7,821 - -70.7°
Reaches altitude 10° 04:27:45 10° 171° (S) 7,183 - -70.9°
Maximum altitude 04:43:29 21° 133° (SE) 6,486 - -71.1°
Exits shadow 04:51:50 17° 110° (ESE) 6,566 11.6 -70.9°
Drops below altitude 10° 04:58:18 10° 95° (E) 6,877 11.8 -70.6°
Sets 05:05:07 0° 81° (E) 7,434 12.2 -70.3°
